Date,TemperatureHighF,TemperatureAvgF,TemperatureLowF,DewpointHighF,DewpointAvgF,DewpointLowF,HumidityHigh,HumidityAvg,HumidityLow,PressureMaxIn,PressureMinIn,WindSpeedMaxMPH,WindSpeedAvgMPH,GustSpeedMaxMPH,PrecipitationSumIn
2014-1-1,13.5,10.0,4.4,5.8,3.0,1.0,90,74,62,30.47,30.34,9,3,13,0.00
2014-1-2,11.9,8.5,-2.9,5.7,1.9,-6.5,86,74,61,30.42,30.27,10,4,20,0.00
2014-1-3,15.4,5.6,-5.5,5.8,-1.2,-9.1,87,74,60,30.48,30.02,11,4,21,0.00
2014-1-4,30.3,25.3,15.0,28.9,20.7,5.7,95,82,66,30.02,29.83,12,4,18,0.00
2014-1-5,30.1,22.2,15.4,28.7,19.4,12.2,95,89,84,30.10,29.82,8,2,15,0.00
2014-1-6,15.3,2.8,-5.8,11.9,-1.0,-10.1,87,84,79,30.11,29.82,6,2,16,0.00
2014-1-7,9.1,2.9,-5.7,6.3,-0.6,-9.5,88,85,82,30.32,30.09,6,1,10,0.00
2014-1-8,15.2,10.7,5.9,10.6,7.3,3.1,89,86,80,30.56,30.31,4,0,7,0.00
2014-1-9,19.7,12.2,7.3,17.0,8.4,4.2,89,84,78,30.60,30.27,6,1,9,0.00
2014-1-10,41.7,30.0,19.8,40.8,28.2,17.0,97,93,89,30.27,29.56,5,1,9,1.03
2014-1-11,41.8,37.6,31.5,40.5,36.1,28.6,97,94,87,29.56,29.35,6,2,12,0.35
2014-1-13,41.6,37.9,28.9,36.8,32.8,25.0,85,82,78,29.70,29.50,6,1,15,0.00
2014-1-14,33.4,27.4,19.7,31.4,24.6,17.9,94,89,71,29.74,29.59,13,2,22,0.00
2014-1-15,27.9,22.1,19.7,25.6,17.3,12.9,92,81,70,30.01,29.59,7,2,15,0.00
2014-1-16,29.0,22.8,17.1,27.2,19.1,12.9,93,86,78,29.88,29.56,12,5,20,0.00
2014-1-17,29.5,22.2,19.7,27.7,18.5,14.8,93,85,80,29.91,29.57,4,2,11,0.00
2014-1-18,24.3,20.0,12.4,21.0,15.2,-99.9,90,84,78,29.90,29.85,5,-11,7,0.00
2014-1-19,30.8,25.6,15.0,26.2,22.0,12.6,92,86,81,29.83,29.52,7,2,12,0.00
2014-1-20,30.5,19.7,7.7,26.8,13.5,-0.1,88,76,69,30.17,29.53,9,2,9,0.00
2014-1-21,11.2,6.9,-2.6,3.7,-3.4,-99.9,87,69,59,30.31,30.17,4,-31,7,0.01
2014-1-22,11.7,9.1,6.3,8.1,4.9,0.8,88,83,75,30.22,29.89,10,2,15,0.00
2014-1-23,16.2,7.8,-2.5,7.4,2.6,-5.9,89,80,57,30.52,30.02,6,1,12,0.03
2014-1-24,25.8,14.2,6.9,24.3,10.2,2.6,94,84,76,30.47,29.40,11,5,14,0.00
2014-1-25,28.4,14.8,1.5,27.2,9.0,-99.9,95,84,72,29.80,29.31,8,-24,10,0.00
2014-1-26,19.7,9.5,-3.0,17.2,4.8,-99.9,91,85,76,29.80,29.38,6,-13,11,0.00
2014-1-27,12.4,2.6,-9.7,7.7,-1.9,-13.2,87,81,70,30.34,29.56,6,2,15,0.00
2014-1-28,7.8,-0.6,-13.9,4.4,-5.9,-99.9,89,82,74,30.36,30.16,6,-13,9,0.00
2014-1-29,18.1,12.3,6.9,10.0,4.9,-99.9,86,75,66,30.16,30.06,8,-12,13,0.00
2014-1-30,30.8,23.1,14.3,28.7,15.3,5.6,94,73,53,30.06,29.68,12,5,17,0.00
2014-1-31,30.7,20.4,10.9,28.1,12.4,-99.9,90,78,66,30.17,29.81,4,-27,6,0.01
2014-2-1,24.9,18.0,8.4,22.0,14.1,-99.9,92,88,88,30.18,29.91,5,-13,8,0.00
2014-2-2,22.3,17.6,-0.4,19.6,11.3,-99.9,91,80,65,30.32,30.06,3,-12,6,0.00
2014-2-3,22.0,8.2,-6.7,11.5,2.2,-99.9,89,80,63,30.41,30.33,4,-9,6,0.00
2014-2-4,24.4,13.8,2.2,16.3,9.1,-0.8,89,82,70,30.48,30.24,3,0,6,0.00
2014-2-5,21.3,17.7,13.2,18.1,10.9,6.0,92,75,54,30.41,30.12,10,4,16,0.00
2014-2-6,13.5,11.8,9.9,10.1,7.3,4.5,87,82,72,30.41,30.29,5,1,11,0.00
2014-2-7,14.6,10.3,7.3,7.9,5.4,2.7,86,80,70,30.31,30.27,6,2,14,0.00
2014-2-8,18.5,14.8,11.4,15.3,10.1,6.4,92,82,71,30.31,30.17,5,1,7,0.00
2014-2-9,22.0,16.1,11.5,15.8,11.9,8.4,90,83,70,30.22,30.07,4,0,6,0.00
2014-2-10,14.6,9.5,3.7,9.1,4.7,0.9,90,81,67,30.46,30.22,3,0,6,0.00
2014-2-11,16.5,9.7,0.8,7.7,4.0,-2.2,88,78,64,30.55,30.44,5,1,11,0.00
2014-2-12,19.2,8.4,-4.6,11.5,2.1,-7.8,94,76,61,30.45,30.10,5,1,9,0.00
2014-2-13,29.8,23.3,17.0,20.7,12.8,6.2,83,65,37,30.10,29.49,9,2,15,0.00
2014-2-14,26.5,22.9,13.2,23.6,17.8,8.8,90,81,71,29.91,29.48,5,2,9,0.00
2014-2-15,24.6,14.1,7.6,13.3,8.0,3.1,92,77,57,30.10,29.91,6,1,10,0.00
2014-2-16,27.7,19.7,11.2,17.1,13.8,7.7,89,78,56,30.36,29.97,6,1,11,0.01
2014-2-17,18.7,14.0,8.2,15.6,9.2,3.1,91,81,57,30.38,29.73,12,4,19,0.00
2014-2-18,43.1,27.2,14.5,30.8,21.6,12.1,94,81,59,29.98,29.63,11,2,19,0.10
2014-2-19,45.4,33.1,23.1,31.6,26.1,20.6,95,77,43,30.01,29.61,5,1,8,0.02
2014-2-20,42.9,32.3,22.8,41.8,29.9,20.3,97,91,81,30.02,29.28,16,6,24,0.50
2014-2-21,39.1,29.8,24.0,34.7,24.2,15.7,94,80,64,29.70,29.30,13,8,29,0.00
2014-2-22,29.0,24.9,20.6,17.1,15.7,13.6,75,68,58,30.01,29.70,9,3,15,0.00
2014-2-23,22.8,19.0,11.9,13.8,10.8,9.0,89,71,58,30.13,30.01,7,2,15,0.00
2014-2-24,19.4,15.5,9.4,11.2,9.0,5.8,87,75,64,30.23,30.10,4,2,13,0.00
2014-2-25,18.5,13.6,8.9,12.9,8.3,3.5,88,79,63,30.21,30.08,6,1,12,0.00
2014-2-26,14.3,9.1,0.6,11.1,3.1,-2.8,89,77,64,30.15,29.57,11,3,18,0.00
2014-2-27,13.9,5.0,-9.4,11.3,-0.3,-13.3,89,79,61,30.27,29.56,7,2,16,0.00
2014-2-28,17.2,3.3,-15.1,10.4,-5.9,-19.2,87,67,45,30.35,30.11,9,2,16,0.00
2014-3-1,20.3,16.8,11.2,18.4,11.1,5.1,96,78,60,30.37,30.07,4,1,8,0.03
2014-3-2,13.7,8.5,-4.2,5.5,-0.4,-99.9,84,71,52,30.46,30.34,5,-17,8,0.01
2014-3-3,13.8,2.7,-14.8,1.9,-7.5,-99.9,87,69,50,30.57,30.44,7,-24,7,0.00
2014-3-4,19.1,14.0,8.7,15.1,9.0,0.7,86,80,67,30.43,30.24,5,1,9,0.00
2014-3-5,22.3,14.4,8.4,11.1,6.0,3.1,88,71,45,30.57,30.32,8,2,15,0.00
2014-3-6,26.9,17.5,0.9,11.2,6.7,-2.3,88,64,45,30.57,30.17,10,2,13,0.01
2014-3-7,44.8,25.1,6.7,29.2,14.8,-99.9,88,69,42,30.17,29.89,8,-10,10,0.01
2014-3-8,33.4,27.6,16.0,28.4,18.8,11.7,84,70,56,30.25,29.97,8,2,13,0.00
2014-3-9,35.7,24.2,10.5,30.9,17.3,7.6,92,76,50,30.25,29.81,10,3,18,0.00
2014-3-10,50.3,39.3,29.2,36.5,32.6,27.4,95,78,57,29.81,29.55,7,1,13,0.00
2014-3-11,46.8,38.0,30.3,35.6,31.3,26.3,95,78,56,29.81,29.62,8,1,11,0.00
2014-3-12,36.1,25.3,11.7,26.7,11.7,-2.9,72,57,34,30.12,29.74,13,5,22,0.00
2014-3-13,27.6,16.9,2.4,20.9,9.2,-1.2,87,72,62,30.18,29.90,11,3,16,0.00
2014-3-14,47.6,33.7,22.1,33.2,26.2,19.9,95,76,54,29.90,29.51,10,2,16,0.00
2014-3-17,29.4,22.3,5.4,13.2,5.8,-3.7,92,50,36,30.14,29.92,8,4,12,0.00
2014-3-18,43.9,32.4,20.4,30.9,22.6,12.7,83,68,55,30.01,29.87,9,2,19,0.00
2014-3-19,40.9,35.7,32.3,39.8,32.5,28.9,100,89,74,29.87,29.57,7,2,10,0.14
2014-3-20,36.1,31.8,23.0,31.0,25.0,19.1,94,77,51,30.08,29.83,6,1,9,0.06
2014-3-21,40.4,28.4,17.1,32.4,20.7,-99.9,95,77,51,30.09,29.73,9,-7,14,0.17
2014-3-22,34.2,29.9,21.4,32.4,23.4,11.1,95,77,61,30.32,29.73,6,2,10,0.01
2014-3-23,23.3,17.4,13.1,11.5,7.4,-99.9,78,67,54,30.44,30.32,6,-19,11,0.00
2014-3-24,27.1,19.0,9.9,15.4,11.4,6.8,90,73,53,30.40,30.06,5,1,7,0.00
2014-3-25,25.7,20.6,11.6,22.8,13.8,-99.9,91,78,54,30.22,29.95,6,-10,13,0.04
2014-3-26,29.8,17.1,2.8,18.0,9.1,-0.2,90,73,50,30.37,30.11,9,2,9,0.01
2014-3-27,40.6,34.7,30.2,38.7,28.3,18.3,95,78,55,30.10,29.53,5,2,11,0.45
2014-3-28,45.2,36.9,31.5,43.9,33.8,27.1,97,89,79,30.24,29.44,5,2,11,0.68
2014-3-29,42.5,34.7,29.3,28.9,26.5,24.2,87,73,48,30.28,30.16,8,2,15,0.00
2014-3-30,47.6,34.2,20.5,29.3,23.8,18.5,93,69,43,30.28,30.10,7,1,10,0.00
2014-3-31,61.5,42.6,27.3,37.1,30.6,24.7,91,67,36,30.15,29.82,9,2,10,0.00
2014-4-1,52.7,39.7,30.8,43.3,32.5,23.5,87,76,55,30.03,29.66,10,3,13,0.13
2014-4-2,49.6,38.3,24.6,29.5,26.3,22.0,91,64,38,30.23,30.04,4,1,7,0.00
2014-4-3,38.7,35.8,33.0,28.5,24.0,19.8,82,62,52,30.20,29.87,16,8,23,0.01
2014-4-4,41.4,35.1,30.4,40.5,32.7,27.3,97,91,81,29.81,29.40,11,4,19,0.58
2014-4-5,44.6,34.4,28.8,27.8,24.0,18.5,89,68,38,30.20,29.81,6,2,13,0.02
2014-4-6,54.2,39.1,23.8,36.2,28.1,21.3,91,68,42,30.20,30.00,8,1,12,0.00
2014-4-7,56.1,42.2,29.1,32.5,29.3,24.1,93,65,31,30.01,29.58,9,2,13,0.00
2014-4-8,56.8,44.4,33.9,38.0,33.4,29.8,88,67,46,29.90,29.56,6,2,15,0.00
2014-4-9,54.0,43.1,27.5,33.6,28.6,24.1,92,59,36,30.02,29.83,9,2,15,0.00
2014-4-10,58.0,51.5,37.0,43.2,36.3,31.7,83,57,43,29.90,29.64,10,3,17,0.02
2014-4-11,60.8,45.7,29.0,34.7,28.4,23.5,90,58,25,30.04,29.89,8,2,15,0.00
2014-4-12,62.9,45.9,33.4,50.1,36.9,28.3,96,74,35,30.08,29.69,11,3,16,2.31
2014-4-13,62.7,55.2,51.4,57.6,52.6,49.8,96,91,74,29.78,29.50,9,2,15,1.17
2014-4-14,64.7,42.6,24.8,60.2,39.1,22.3,97,87,75,29.94,29.27,12,4,20,0.55
2014-4-15,31.8,27.0,23.3,22.3,16.0,8.3,90,65,38,30.28,29.92,7,2,18,0.08
2014-4-16,46.7,33.9,19.9,26.8,20.4,16.3,91,61,37,30.43,30.27,10,3,19,0.00
2014-4-17,57.2,45.2,35.4,40.0,31.6,24.0,82,59,44,30.32,30.19,10,4,18,0.00
2014-4-18,54.1,45.3,37.0,39.1,34.8,25.0,92,69,41,30.40,30.24,8,2,15,0.00
2014-4-19,59.0,44.0,29.0,36.1,28.8,25.0,87,59,32,30.48,30.27,10,3,18,0.00
2014-4-20,71.8,56.1,40.1,45.6,37.4,30.6,80,52,33,30.31,30.03,11,2,16,0.00
2014-4-21,74.3,60.0,51.5,54.2,48.4,40.8,92,68,41,30.03,29.73,12,1,17,0.03
2014-4-22,54.9,44.4,36.1,53.5,34.7,26.9,95,69,55,30.04,29.70,9,4,19,0.00
2014-4-23,56.4,42.8,31.1,31.6,26.7,21.3,85,57,26,30.17,30.05,7,2,14,0.00
2014-4-24,57.9,48.2,38.8,36.5,28.1,22.8,75,48,28,30.13,29.81,11,4,23,0.00
2014-4-25,59.0,47.8,39.2,43.7,37.3,22.7,90,69,34,29.82,29.66,7,2,13,0.13
2014-4-26,54.1,44.0,35.9,39.7,33.9,30.1,93,69,45,30.12,29.81,10,2,13,0.00
2014-4-27,53.9,44.7,39.1,35.2,32.2,28.6,83,63,46,30.18,30.02,15,8,24,0.00
2014-4-28,55.7,49.0,43.8,36.3,32.8,30.1,63,54,41,30.05,29.74,18,12,32,0.00
2014-4-29,57.4,49.3,42.4,53.8,45.2,35.4,95,86,60,29.74,29.54,14,5,23,0.72
2014-4-30,58.1,51.8,43.4,50.5,46.9,40.7,97,84,65,29.79,29.68,7,1,9,0.04
2014-5-1,45.1,42.8,38.3,41.1,39.1,36.0,94,87,79,29.78,29.69,9,2,15,0.02
2014-5-2,48.7,45.5,42.7,44.3,42.7,40.2,95,90,80,29.76,29.70,6,1,9,0.04
2014-5-3,56.7,49.7,43.4,46.6,41.5,36.0,95,75,48,29.83,29.60,8,2,11,0.08
2014-5-4,54.2,45.1,40.6,40.2,31.9,-99.9,92,66,44,30.11,29.82,8,-22,12,0.00
2014-5-5,58.5,46.4,37.3,41.0,36.5,33.3,92,70,43,30.14,29.97,6,1,9,0.00
2014-5-6,61.1,50.3,36.0,41.5,37.3,33.1,91,63,44,30.11,30.00,11,4,21,0.00
2014-5-7,54.4,48.7,40.9,50.8,44.1,35.0,92,84,60,30.06,29.89,12,5,18,0.81
2014-5-8,83.3,65.5,48.9,66.1,56.7,46.6,92,75,53,29.94,29.76,10,3,14,0.00
2014-5-9,77.3,66.1,53.9,63.6,58.1,45.5,94,77,58,29.77,29.60,16,5,21,0.83
2014-5-10,65.2,56.6,46.3,46.0,41.9,34.0,88,60,34,29.99,29.77,7,2,17,0.00
2014-5-11,79.5,61.6,42.5,59.7,47.9,38.7,93,65,35,30.02,29.89,10,2,17,0.19
2014-5-12,72.8,63.7,56.7,67.1,61.6,55.6,98,93,78,29.95,29.80,7,1,11,1.22
2014-5-13,70.3,62.8,52.6,68.2,60.2,48.8,97,91,86,30.08,29.73,6,1,13,0.09
2014-5-14,60.8,53.6,48.0,52.2,46.5,43.4,93,78,57,30.16,30.01,8,1,11,0.35
2014-5-15,48.0,42.3,37.7,46.2,39.6,33.3,94,90,82,30.05,29.81,9,4,20,0.41
2014-5-16,48.0,41.0,34.3,36.5,33.3,31.3,91,75,55,30.08,30.02,4,1,13,0.00
2014-5-17,56.1,45.4,34.4,40.8,34.2,30.2,95,69,38,30.14,30.06,6,2,12,0.00
2014-5-18,64.8,53.8,39.0,44.5,38.4,34.1,91,59,39,30.21,30.14,11,2,19,0.00
2014-5-19,70.3,56.9,40.7,52.5,42.0,37.9,93,63,32,30.26,30.05,11,2,20,0.17
2014-5-20,74.3,62.8,52.5,63.1,55.5,46.8,93,78,67,30.11,29.82,9,2,13,0.17
2014-5-21,82.6,68.8,60.5,66.7,58.4,48.3,97,74,32,29.88,29.80,5,1,12,0.05
2014-5-22,68.2,60.1,51.5,54.6,48.8,46.0,87,68,49,30.10,29.88,6,2,11,0.00
2014-5-23,71.9,58.1,45.8,50.7,46.3,43.1,93,67,38,30.18,30.10,8,2,15,0.00
2014-5-24,76.8,61.8,44.6,51.5,46.8,42.8,95,63,34,30.24,30.12,3,1,10,0.00
2014-5-25,79.8,63.9,47.9,54.0,49.4,45.9,94,64,31,30.16,30.02,7,1,18,0.00
2014-5-26,79.2,65.7,50.5,66.6,58.1,48.5,94,78,56,30.04,29.89,7,1,13,0.01
2014-5-27,76.7,69.4,62.6,69.3,65.2,60.9,96,87,77,29.92,29.84,5,0,8,0.00
2014-5-28,73.5,65.9,59.4,65.1,55.7,50.7,93,70,55,30.08,29.89,8,2,15,0.00
2014-5-29,79.3,64.6,49.1,58.6,52.1,47.2,94,68,40,30.15,30.06,6,2,11,0.00
2014-5-30,84.4,68.0,52.0,62.4,55.5,50.4,96,69,38,30.21,30.10,5,0,12,0.00
2014-5-31,86.9,71.3,56.0,61.5,56.2,52.3,88,62,35,30.22,30.06,7,1,11,0.00
2014-6-1,86.6,72.5,61.0,61.2,54.5,45.8,85,55,34,30.11,29.87,9,2,15,0.00
2014-6-2,80.7,74.4,66.4,69.6,65.8,59.1,88,75,60,29.91,29.70,14,3,24,0.00
2014-6-3,72.0,64.9,57.8,61.5,53.8,-99.9,96,72,49,29.90,29.73,7,-13,10,0.04
2014-6-4,73.1,60.5,53.0,57.5,53.1,48.5,94,78,44,29.90,29.83,4,0,7,0.01
2014-6-5,77.3,64.7,44.5,51.0,46.9,42.3,93,56,32,29.98,29.87,4,1,8,0.00
2014-6-6,81.1,63.1,48.1,54.1,49.8,45.6,94,66,35,30.01,29.94,5,1,8,0.00
2014-6-7,83.9,67.6,50.2,58.5,52.1,48.1,94,63,31,30.04,29.85,6,1,11,0.00
2014-6-8,75.7,65.8,60.1,58.7,53.7,43.8,85,67,43,30.01,29.82,7,2,14,0.00
2014-6-9,79.5,65.5,50.3,57.4,50.2,44.1,85,59,42,30.05,29.92,7,1,11,0.00
2014-6-10,75.2,65.8,55.7,57.5,52.6,47.1,82,64,46,29.96,29.87,6,2,11,0.00
2014-6-11,71.5,63.2,55.4,67.6,60.1,47.2,96,90,47,29.87,29.68,6,1,11,0.64
2014-6-12,75.3,66.5,61.0,65.2,62.4,54.0,97,87,65,29.76,29.68,7,1,12,0.00
2014-6-13,63.5,56.0,49.8,54.8,47.9,45.0,93,75,53,30.03,29.75,4,1,9,0.00
2014-6-14,76.2,59.0,41.3,52.8,46.4,40.0,96,68,34,30.15,30.02,5,1,9,0.00
2014-6-15,79.8,68.2,53.5,64.2,54.8,49.4,90,64,43,30.07,29.84,13,3,22,0.00
2014-6-16,84.3,72.6,61.7,64.9,61.3,56.9,96,71,40,30.01,29.88,7,1,14,0.00
2014-6-17,80.3,71.5,62.9,71.0,65.9,59.6,95,83,64,29.93,29.70,8,1,17,0.54
2014-6-18,72.0,68.1,65.6,68.9,66.3,64.4,97,94,84,30.05,29.83,7,1,11,1.60
2014-6-19,77.0,69.6,61.7,65.7,60.4,48.5,95,74,58,30.14,30.01,10,4,20,0.00
2014-6-20,63.5,59.8,55.9,60.0,53.8,39.7,95,82,46,30.09,29.96,6,2,13,0.65
2014-6-21,77.4,66.8,59.0,68.4,61.9,57.5,96,85,64,30.01,29.86,6,1,10,0.03
2014-6-22,81.9,71.8,64.0,71.5,66.5,63.1,97,84,64,29.92,29.82,2,0,7,0.00
2014-6-23,76.2,68.7,62.8,70.4,66.1,61.6,97,92,79,29.87,29.80,5,0,9,0.16
2014-6-24,81.2,72.0,66.7,72.6,68.1,65.5,97,88,67,29.86,29.81,2,0,6,0.05
2014-6-25,75.5,68.3,65.0,68.2,65.1,63.5,97,90,75,30.00,29.86,5,1,12,0.28
2014-6-26,78.1,69.3,61.7,68.5,64.3,60.6,97,85,59,30.06,29.98,4,0,7,0.00
2014-6-27,84.5,72.5,59.0,69.8,64.4,57.6,96,78,50,30.07,29.99,7,1,11,0.00
2014-6-28,84.3,73.0,65.1,71.9,67.9,63.6,96,85,64,30.05,29.95,7,1,11,0.03
2014-6-29,80.5,76.0,70.7,71.6,69.1,66.9,93,80,65,29.96,29.83,9,2,18,0.26
2014-6-30,82.9,75.8,67.5,72.9,70.6,65.4,96,85,69,29.87,29.64,8,2,16,0.25
2014-7-1,77.2,69.4,63.4,66.1,64.2,62.0,97,84,64,29.70,29.47,7,2,23,0.22
2014-7-2,65.9,63.7,59.9,63.4,59.4,53.4,95,86,78,29.98,29.68,7,1,11,0.00
2014-7-3,73.5,63.5,54.6,53.7,49.5,43.8,85,63,37,30.17,29.97,5,1,10,0.00
2014-7-4,77.7,63.1,48.3,54.9,49.8,43.5,96,67,33,30.30,30.17,5,1,12,0.00
2014-7-5,76.8,63.5,47.8,59.3,53.9,46.2,95,73,50,30.28,30.03,6,1,15,0.00
2014-7-6,79.3,68.2,57.3,72.3,63.4,55.6,97,85,70,30.03,29.61,8,2,18,0.72
2014-7-7,82.4,74.7,66.7,71.2,66.6,61.0,97,78,50,29.69,29.58,3,1,9,0.34
2014-7-8,73.9,68.0,62.4,65.4,62.6,59.4,96,84,64,29.75,29.50,5,1,16,0.22
2014-7-9,72.6,63.5,56.5,60.1,54.9,52.6,93,75,53,30.03,29.74,3,0,9,0.00
2014-7-10,75.7,63.1,50.2,58.6,53.3,49.1,97,74,42,30.19,30.03,3,0,6,0.00
2014-7-11,78.3,66.4,52.4,63.5,58.1,51.0,96,77,55,30.22,30.09,6,1,9,0.00
2014-7-12,77.0,69.0,58.6,71.0,65.2,57.2,97,88,70,30.12,29.81,6,1,11,0.02
2014-7-13,77.5,71.0,64.2,70.9,66.5,63.0,97,86,69,29.85,29.74,5,0,12,0.41
2014-7-14,77.9,68.1,59.0,67.4,59.0,52.4,99,76,43,29.85,29.74,6,0,15,0.00
2014-7-15,63.2,59.3,53.9,58.7,54.7,48.6,96,85,71,29.92,29.73,4,1,13,0.13
2014-7-16,69.4,60.3,53.4,56.4,52.9,48.8,92,78,58,30.02,29.91,3,0,8,0.00
2014-7-17,74.0,61.9,49.0,58.4,52.6,47.8,97,75,47,30.12,30.01,4,1,10,0.00
2014-7-18,77.9,62.9,47.2,59.1,53.5,45.8,96,75,46,30.21,30.11,6,1,14,0.00
2014-7-19,81.2,66.8,53.1,62.1,56.6,51.7,96,73,40,30.12,29.99,6,0,8,0.00
2014-7-20,80.8,68.4,56.3,63.2,59.1,54.9,96,75,47,30.06,30.00,4,0,9,0.00
2014-7-21,83.2,70.7,57.7,68.1,63.0,56.3,96,79,55,30.09,30.02,5,1,10,0.00
2014-7-22,84.9,73.6,61.6,72.2,67.0,60.4,98,81,63,30.06,29.85,10,2,17,0.13
2014-7-23,72.2,65.8,59.0,68.2,57.5,51.4,95,75,60,30.12,29.92,8,2,13,0.00
2014-7-24,75.6,62.8,50.0,56.0,51.9,48.3,95,70,45,30.17,30.03,5,1,9,0.00
2014-7-25,74.2,63.0,51.6,60.1,55.6,50.2,96,78,53,30.08,29.91,5,1,12,0.00
2014-7-26,78.0,66.4,59.0,67.6,61.6,57.9,96,85,69,29.92,29.75,5,0,7,0.00
2014-7-27,82.4,70.3,61.1,72.2,63.9,59.0,98,82,55,29.79,29.59,5,1,8,0.03
2014-7-28,66.5,59.2,53.6,62.3,51.8,48.8,93,75,54,30.02,29.78,7,2,11,0.02
2014-7-29,74.7,61.7,50.4,59.8,54.5,48.9,95,79,53,30.01,29.94,3,0,6,0.00
2014-7-30,75.7,63.7,53.5,58.9,53.6,47.2,97,73,41,30.00,29.95,3,0,7,0.00
2014-7-31,78.1,65.5,51.9,63.3,58.8,50.2,97,80,58,29.99,29.97,4,0,9,0.01
2014-8-1,81.4,69.2,57.9,66.8,61.8,56.3,97,80,47,30.08,29.98,5,1,5,0.03
2014-8-2,83.1,70.4,55.9,65.2,61.3,54.8,97,75,48,30.13,30.05,3,0,7,0.00
2014-8-3,84.3,69.6,55.7,66.0,61.5,54.6,97,78,50,30.13,30.02,4,0,7,0.00
2014-8-4,83.7,70.2,60.6,72.3,64.9,59.5,97,85,55,30.08,30.00,2,0,7,0.05
2014-8-5,78.2,69.8,65.5,67.1,64.8,63.0,94,85,63,30.05,29.99,6,1,9,0.00
2014-8-6,81.8,68.0,56.2,63.5,58.0,52.1,97,74,39,30.07,30.00,5,1,11,0.00
2014-8-7,83.6,67.8,53.5,64.9,57.8,52.1,96,74,41,30.13,30.03,3,0,6,0.00
2014-8-8,80.3,68.5,57.3,62.4,58.2,53.9,95,73,42,30.15,30.07,7,2,13,0.00
2014-8-9,79.0,66.9,54.6,62.7,57.9,53.2,96,76,48,30.16,30.07,9,2,17,0.00
2014-8-10,82.8,70.0,57.7,66.1,60.5,56.3,96,75,46,30.11,29.96,6,1,14,0.00
2014-8-11,76.7,70.7,66.8,69.5,66.2,63.4,94,86,74,29.98,29.70,3,0,7,0.24
2014-8-12,67.5,62.6,55.9,65.7,60.9,53.9,97,94,90,29.91,29.65,3,0,13,0.29
2014-8-13,76.2,62.6,51.1,60.1,53.5,48.9,98,76,44,30.03,29.90,4,1,8,0.00
2014-8-14,69.2,58.4,47.6,53.2,48.0,41.8,96,72,40,30.10,30.01,5,1,16,0.00
2014-8-15,74.8,58.5,43.2,57.3,50.0,41.9,97,77,46,30.06,29.94,3,0,10,0.00
2014-8-16,76.5,65.3,52.5,69.3,61.3,50.8,98,88,68,29.94,29.84,4,0,10,0.06
2014-8-17,79.1,69.0,59.8,67.3,61.6,57.8,96,79,52,29.99,29.90,5,2,9,0.00
2014-8-18,80.6,68.5,59.6,69.3,62.7,58.1,96,83,62,29.96,29.76,6,1,10,0.00
2014-8-19,78.1,69.7,65.4,71.8,67.5,63.9,98,93,79,29.78,29.66,5,0,8,0.63
2014-8-20,78.7,70.5,63.9,68.8,65.8,62.1,99,86,65,29.92,29.71,3,0,8,0.00
2014-8-21,76.5,68.9,60.4,72.1,65.9,59.5,97,91,74,29.97,29.91,5,1,8,0.35
2014-8-22,81.3,73.1,67.6,73.6,70.3,66.8,98,91,75,29.99,29.89,5,1,10,0.00
2014-8-23,81.2,72.1,64.8,69.0,66.0,63.3,96,82,64,30.03,29.96,7,2,13,0.00
2014-8-24,79.3,71.7,67.0,68.9,66.6,65.2,95,85,67,30.06,30.00,8,2,14,0.00
2014-8-25,79.3,73.8,68.8,75.2,70.9,67.0,96,91,83,30.03,29.95,4,0,9,0.04
2014-8-26,78.6,70.9,61.2,72.9,67.6,59.4,99,90,70,30.07,29.97,2,0,7,0.00
2014-8-27,76.0,64.7,56.3,62.3,58.1,55.2,97,81,55,30.16,30.07,4,0,8,0.00
2014-8-28,74.4,61.3,48.2,60.3,53.2,47.1,97,77,48,30.18,30.07,5,1,10,0.00
2014-8-29,74.1,66.1,61.1,69.3,60.5,54.4,95,82,73,30.08,29.90,5,1,13,0.19
2014-8-30,78.5,74.3,69.6,72.6,69.4,66.3,96,85,74,29.89,29.75,6,2,15,0.15
2014-8-31,80.9,70.7,65.7,70.3,66.8,64.2,98,88,62,29.92,29.84,3,0,15,0.00
2014-9-1,78.7,72.6,63.9,72.6,69.1,62.7,99,89,76,29.87,29.67,8,2,18,0.65
2014-9-2,79.7,69.3,60.7,66.6,61.2,55.0,98,78,45,29.92,29.76,2,0,6,0.00
2014-9-3,80.5,67.1,57.7,68.0,60.2,56.6,99,81,49,30.00,29.92,5,0,11,0.00
2014-9-4,82.4,70.8,60.0,71.9,66.0,58.6,98,86,65,30.01,29.87,8,1,15,0.09
2014-9-5,79.4,73.1,63.7,75.3,69.9,60.6,98,90,74,29.99,29.85,13,1,19,0.37
2014-9-6,74.3,64.6,55.0,61.4,55.8,49.9,94,76,45,30.14,29.98,5,1,9,0.00
2014-9-7,76.8,62.0,48.6,61.1,53.9,47.5,97,78,45,30.20,30.12,4,0,8,0.00
2014-9-8,76.1,63.0,51.1,56.9,53.3,50.0,96,74,42,30.17,30.01,7,1,12,0.00
2014-9-9,72.3,59.6,55.1,61.1,56.5,53.7,96,90,66,30.03,29.99,2,0,6,0.00
2014-9-15,56.6,51.9,44.5,55.8,50.8,43.4,97,96,95,30.15,30.08,0,0,1,0.16
2014-9-16,63.8,51.4,43.0,55.4,45.9,42.2,99,84,51,30.18,30.08,4,0,7,0.00
2014-9-17,66.5,51.3,38.2,53.7,45.6,37.2,97,83,54,30.08,29.97,4,0,11,0.00
2014-9-18,63.5,53.3,44.7,55.1,49.9,43.4,97,89,73,30.20,30.03,6,1,8,0.00
2014-9-19,69.0,56.1,43.8,56.2,50.1,42.5,97,82,59,30.24,29.93,8,2,14,0.00
2014-9-20,71.6,64.7,56.6,66.2,59.5,50.3,96,84,66,29.93,29.68,10,2,18,0.38
2014-9-21,62.5,56.0,47.1,61.9,53.0,40.5,98,90,76,30.10,29.57,6,2,15,0.50
2014-9-22,62.8,51.2,40.7,50.7,45.0,39.1,96,80,59,30.25,30.10,5,1,12,0.00
2014-9-23,72.7,56.3,43.1,59.0,51.0,42.0,97,84,56,30.34,30.24,5,0,6,0.00
2014-9-24,73.5,58.3,45.8,60.2,51.9,44.7,97,82,46,30.40,30.29,5,1,11,0.00
2014-9-25,77.4,60.5,49.6,60.1,54.1,48.5,97,82,45,30.31,30.22,4,0,8,0.00
2014-9-26,76.9,60.6,48.6,59.9,53.8,47.5,97,81,45,30.30,30.23,5,0,10,0.00
2014-9-27,76.8,60.7,48.0,61.6,53.8,46.9,97,81,45,30.30,30.16,4,0,5,0.00
2014-9-28,77.8,61.8,50.0,61.7,55.4,48.9,97,82,48,30.19,30.05,3,0,4,0.00
2014-9-29,77.8,59.1,48.3,63.6,54.4,47.2,97,86,59,30.05,29.88,4,1,9,0.21
2014-9-30,54.2,50.7,47.4,49.8,47.2,44.9,93,88,80,30.04,29.97,6,1,7,0.00
2014-10-1,62.0,55.1,51.2,53.5,51.1,49.3,95,87,70,30.06,29.95,6,1,9,0.00
2014-10-2,68.0,60.2,50.1,64.1,57.8,48.7,97,92,84,29.98,29.68,5,0,8,0.10
2014-10-3,66.6,57.9,45.6,64.8,55.4,42.0,97,91,82,29.67,29.28,7,1,15,0.85
2014-10-4,45.6,42.9,40.5,42.3,39.7,36.9,95,89,76,29.66,29.56,4,1,12,0.11
2014-10-5,51.1,45.9,41.1,43.2,39.9,35.8,97,81,57,29.67,29.61,6,1,10,0.01
2014-10-6,56.2,47.9,41.7,51.9,45.8,40.5,97,92,82,29.62,29.50,5,0,8,0.29
2014-10-7,60.2,50.2,38.7,53.3,46.1,37.7,98,86,66,29.73,29.60,9,1,18,0.00
2014-10-8,56.9,48.0,39.3,47.0,39.4,35.9,96,75,46,29.98,29.73,6,1,12,0.00
2014-10-9,56.4,44.0,33.1,41.8,36.8,31.8,97,78,50,30.14,29.98,4,1,7,0.00
2014-10-10,55.6,42.9,31.4,41.8,35.3,30.0,96,77,47,30.22,30.13,4,0,8,0.00
2014-10-11,57.1,42.0,30.1,42.3,35.8,28.6,96,81,49,30.27,30.18,6,0,11,0.01
2014-10-12,60.5,45.1,30.1,44.8,36.7,28.6,95,75,46,30.20,29.95,7,2,16,0.00
2014-10-13,67.4,57.8,49.5,64.6,54.8,40.6,98,90,61,29.95,29.64,4,1,9,0.16
2014-10-14,67.8,63.7,59.0,64.5,61.4,58.0,97,92,86,29.63,29.49,8,1,9,0.47
2014-10-15,63.5,57.9,54.8,58.2,55.6,53.8,97,92,74,29.79,29.59,5,0,8,0.10
2014-10-16,58.1,55.3,52.6,55.9,53.9,50.7,97,95,89,29.79,29.64,2,0,3,0.06
2014-10-17,59.6,53.2,45.5,54.4,50.5,43.0,97,91,75,29.74,29.46,6,1,14,0.07
2014-10-18,46.7,43.2,33.7,43.2,38.8,31.0,93,85,67,30.17,29.74,5,2,11,0.02
2014-10-19,50.4,40.5,29.3,42.2,35.9,27.9,97,84,67,30.20,29.91,8,2,14,0.00
2014-10-20,58.1,50.6,44.1,51.4,46.8,42.4,97,87,72,29.95,29.77,5,1,7,0.02
2014-10-21,51.6,46.1,37.1,45.2,40.1,34.2,92,81,56,30.29,29.95,7,2,12,0.00
2014-10-22,53.2,39.3,27.9,37.8,32.7,26.4,95,80,48,30.42,30.29,7,1,8,0.01
2014-10-23,58.0,41.5,28.9,46.5,37.0,27.6,98,86,55,30.31,30.08,6,0,8,0.00
2014-10-24,56.3,50.6,45.7,51.5,47.5,42.9,94,89,83,30.08,29.92,3,0,7,0.00
2014-10-25,65.6,55.5,45.0,54.8,42.9,34.2,98,68,34,29.92,29.78,7,2,16,0.00
2014-10-26,59.0,45.6,34.4,40.2,35.6,31.5,95,71,40,29.97,29.86,6,1,9,0.00
2014-10-27,74.1,55.5,32.6,59.7,46.4,30.4,94,73,55,29.94,29.60,6,1,10,0.04
2014-10-28,70.0,58.5,49.1,58.1,47.1,36.4,87,66,49,29.85,29.57,10,3,16,0.00
2014-10-29,49.1,43.9,36.2,39.7,37.6,33.9,92,79,67,30.11,29.83,6,1,16,0.03
2014-10-30,49.5,42.7,35.9,41.4,37.7,33.8,94,83,64,30.12,29.98,4,0,8,0.00
2014-10-31,43.7,37.2,31.6,40.7,32.5,21.5,94,83,66,30.33,29.92,15,4,24,0.18
2014-11-1,41.5,31.2,24.2,25.3,20.8,17.2,92,66,43,30.46,30.33,8,2,12,0.00
2014-11-2,50.4,33.8,20.9,35.4,27.1,18.7,93,78,51,30.45,30.22,8,1,13,0.00
2014-11-3,59.5,49.3,42.9,44.8,35.6,26.5,76,59,50,30.22,29.92,8,2,12,0.00
2014-11-4,59.5,49.2,38.2,52.5,43.5,36.1,94,82,48,29.95,29.78,7,2,19,0.14
2014-11-5,49.2,43.9,34.4,40.5,35.3,30.9,90,72,54,30.10,29.92,6,1,9,0.06
2014-11-6,43.4,40.9,35.9,42.1,38.0,29.1,95,90,74,30.14,29.72,7,2,20,0.26
2014-11-7,42.7,37.3,30.8,35.3,31.5,28.6,94,80,59,30.15,29.88,4,1,8,0.02
2014-11-8,41.8,38.7,31.0,39.3,33.9,26.5,95,83,67,29.91,29.66,4,1,9,0.13
2014-11-9,44.1,37.3,29.4,38.4,33.7,26.1,95,87,73,29.90,29.73,9,1,16,0.09
2014-11-10,55.9,44.4,37.4,43.3,38.4,35.6,95,80,56,29.90,29.62,8,2,12,0.03
2014-11-11,54.2,42.7,32.1,47.7,39.3,25.6,93,88,75,29.96,29.55,8,1,16,0.23
2014-11-12,32.0,30.5,28.4,25.7,23.1,21.1,82,74,65,30.23,29.97,4,1,14,0.00
2014-11-13,31.9,27.3,22.7,24.2,22.5,20.0,90,82,68,30.23,30.18,6,1,10,0.02
2014-11-14,32.3,27.6,21.9,25.1,22.6,19.6,94,82,65,30.34,30.21,5,1,6,0.02
2014-11-15,30.3,28.3,26.3,24.2,21.1,19.3,91,74,66,30.35,30.21,6,1,11,0.00
2014-11-16,29.5,27.8,25.8,28.0,25.9,23.8,94,93,91,30.21,29.85,5,1,6,0.00
2014-11-17,28.9,20.7,14.8,27.1,17.5,12.1,96,87,80,29.85,29.70,3,1,6,0.00
2014-11-18,22.0,18.2,14.4,18.4,15.3,11.8,91,88,81,30.06,29.77,5,1,9,0.00
2014-11-19,24.7,20.5,16.5,22.9,17.6,13.0,93,88,82,30.06,29.68,7,2,13,0.00
2014-11-20,22.5,19.5,12.3,18.9,15.4,8.9,91,84,71,30.24,29.86,5,1,8,0.00
2014-11-21,27.9,19.8,8.1,18.7,13.8,5.5,100,78,65,30.48,30.24,9,2,13,0.05
2014-11-22,44.1,35.5,23.9,43.3,32.2,14.9,97,88,65,30.25,29.86,5,1,8,0.37
2014-11-23,50.3,45.8,37.5,49.2,44.5,36.7,98,95,89,29.88,29.14,5,0,7,0.67
2014-11-24,48.8,41.8,30.8,48.2,40.8,29.8,98,96,91,29.62,28.99,11,2,19,0.67
2014-11-25,30.9,28.7,27.0,29.8,26.9,24.3,96,93,89,30.20,29.63,4,1,10,0.03
2014-11-26,29.8,28.2,27.5,26.5,25.4,23.6,93,89,80,30.21,30.15,3,0,6,0.00
2014-11-27,28.9,24.9,19.3,26.1,20.6,12.6,94,84,74,30.39,30.17,6,1,14,0.00
2014-11-28,26.8,22.2,18.9,22.5,17.8,13.9,88,83,76,30.37,30.01,8,2,13,0.00
2014-11-29,49.6,36.7,26.8,46.8,32.2,22.6,90,83,72,30.01,29.61,9,2,13,0.02
2014-11-30,50.8,43.1,30.7,48.7,40.4,24.7,95,90,79,30.20,29.61,7,2,16,0.01
2014-12-1,30.6,19.9,12.2,24.6,11.6,6.5,80,70,61,30.72,30.21,7,2,12,0.00
2014-12-2,32.4,22.0,10.8,29.8,16.6,6.2,94,80,65,30.67,30.01,7,3,12,0.00
2014-12-3,32.8,29.9,23.6,31.5,23.5,14.7,95,78,62,30.34,29.99,6,1,11,0.05
2014-12-4,29.6,23.3,14.2,18.2,14.9,11.7,91,71,55,30.50,30.34,5,1,7,0.00
2014-12-5,35.8,31.8,27.5,29.6,25.3,16.5,85,77,63,30.37,30.20,3,0,6,0.00
2014-12-6,39.4,33.9,24.5,31.8,25.6,18.7,90,73,46,30.70,30.26,10,2,19,0.00
2014-12-7,35.1,27.0,17.6,25.1,19.5,15.0,90,75,52,30.73,30.38,7,2,11,0.00
2014-12-8,35.8,32.5,30.0,32.3,28.2,21.8,96,84,68,30.38,30.01,6,1,10,0.13
2014-12-9,37.4,34.2,30.9,34.7,31.1,25.7,96,89,77,30.37,30.05,7,1,11,0.21
2014-12-10,34.6,29.1,22.4,25.7,22.3,18.5,85,76,62,30.40,30.25,6,2,11,0.00
2014-12-11,38.3,27.2,19.2,29.4,23.0,17.3,94,85,59,30.24,30.16,4,1,9,0.00
2014-12-12,35.5,31.5,24.2,34.2,29.8,22.2,95,93,91,30.27,30.17,2,0,4,0.00
2014-12-13,41.5,38.2,35.2,40.7,37.0,33.5,97,95,93,30.22,30.05,3,0,7,0.02
2014-12-14,47.3,43.7,41.3,46.8,43.1,40.5,98,98,97,30.08,30.02,2,0,5,0.04
2014-12-15,47.5,45.9,44.6,46.8,44.9,42.2,98,96,89,30.02,29.74,4,1,6,0.01
2014-12-16,45.2,41.8,32.3,44.4,40.4,30.5,97,95,90,29.96,29.66,3,0,7,0.07
2014-12-17,32.2,28.5,26.8,30.3,24.0,20.2,93,83,75,30.21,29.96,4,2,12,0.00
2014-12-18,30.9,29.6,26.7,28.7,25.7,21.1,93,85,78,30.26,30.20,7,0,7,0.00
2014-12-19,33.4,25.2,18.9,21.3,19.7,16.4,92,80,58,30.35,30.24,4,0,7,0.00
2014-12-20,30.9,23.9,16.1,27.8,21.2,13.9,92,89,79,30.34,30.28,3,0,4,0.00
2014-12-21,33.9,31.8,29.8,29.1,27.8,25.8,92,85,78,30.29,30.12,6,1,11,0.00
2014-12-22,36.2,32.3,27.9,32.9,28.2,24.0,94,85,74,30.12,29.81,9,4,15,0.27
2014-12-23,48.5,38.6,32.2,46.4,36.4,30.6,97,92,74,29.80,29.68,9,3,14,0.31
2014-12-24,39.4,36.1,33.3,38.6,35.1,31.7,97,96,95,29.79,29.40,2,0,4,0.51
2014-12-25,36.5,35.5,33.5,35.2,32.1,30.3,96,87,80,30.05,29.50,6,2,14,0.02
2014-12-26,42.4,35.6,30.2,38.2,33.2,28.9,100,91,82,30.07,30.01,5,0,8,0.00
2014-12-27,47.4,40.4,34.8,46.2,38.3,31.5,98,92,83,30.05,29.84,10,3,18,0.06
2014-12-28,34.8,30.2,26.7,32.7,24.3,20.3,93,79,68,30.25,30.01,4,1,11,0.00
2014-12-29,28.1,23.4,17.3,20.4,14.7,9.2,79,69,58,30.52,30.25,6,1,13,0.00
2014-12-30,18.5,16.9,14.3,12.3,8.7,4.7,80,70,59,30.62,30.52,4,1,8,0.00
2014-12-31,21.7,15.4,10.7,13.3,8.9,5.4,85,75,66,30.54,30.06,7,3,17,0.00
2015-1-1,28.7,24.8,21.8,25.2,19.7,13.5,92,81,70,30.09,29.88,6,3,14,0.00
2015-1-2,31.4,23.5,12.6,21.4,16.7,10.2,92,76,50,30.33,30.09,4,0,7,0.03